This demonstration page uses our WeatherBlox Daily Observations layout. Learn more.

Left ArrowRight Arrow

41.86663, -103.66717

Hourly Observations for March 18, 2021

Temp ( °F °C ) Dew Point ( °F °C ) Humidity (%) Winds ( mph kmh ) Pressure ( in mb ) Visibility ( mi km ) Precip ( " mm )
12:53 am 00:53 Clear 21 -6.1 17 -8.3 85 85 N 5 7 30.3 1026 10 16.0934 0 0
1:53 am 01:53 Clear 22 -5.6 18 -7.8 85 85 Calm 30.32 1027 10 16.0934 0 0
2:53 am 02:53 Clear 20 -6.7 18 -7.8 92 92 E 5 7 30.32 1027 10 16.0934 0 0
3:53 am 03:53 Clear 18 -7.8 16 -8.9 92 92 Calm 30.33 1027 10 16.0934 0 0
4:53 am 04:53 Clear 19 -7.2 15 -9.4 84 84 ESE 3 6 30.34 1027 10 16.0934 0 0
5:38 am 05:38 Partly Cloudy 19 -7 16 -9 86 86 E 3 6 30.49 1032 9 14.48406 0 0
5:53 am 05:53 Mostly Cloudy 19 -7.2 16 -8.9 88 88 E 3 6 30.35 1028 8 12.87472 0 0
6:07 am 06:07 Cloudy with Mist and Fog 19 -7.2 17 -8.3 92 92 ESE 3 6 30.49 1033 0.75 1.207005 0 0
6:17 am 06:17 Mostly Cloudy with Freezing Fog 20 -6.7 18 -7.8 92 92 Calm 30.49 1033 0.25 0.402335 0 0
6:53 am 06:53 Mostly Cloudy with Freezing Fog 20 -6.7 19 -7.2 96 96 E 6 9 30.37 1029 0.25 0.402335 0 0
7:53 am 07:53 Mostly Cloudy with Freezing Fog 23 -5 22 -5.6 96 96 ESE 7 11 30.39 1029 N/A 0 0
8:19 am 08:19 Mostly Cloudy with Freezing Fog 23 -5 22 -5.6 96 96 ENE 5 7 30.49 1032 0.25 0.402335 0 0
8:22 am 08:22 Cloudy with Mist and Fog 23 -5 22 -5.6 96 96 E 5 7 30.49 1032 1.25 2.011675 0 0
8:24 am 08:24 Cloudy with Mist and Fog 23 -5 22 -5.6 96 96 E 3 6 30.49 1032 3 4.82802 0 0
8:51 am 08:51 Cloudy with Mist and Fog 23 -5 21 -6 93 93 ESE 3 6 30.5 1033 2.5 4.02335 0 0
8:53 am 08:53 Cloudy with Mist and Fog 24 -4.4 22 -5.6 91 91 ESE 3 6 30.4 1030 3 4.82802 0 0
8:58 am 08:58 Cloudy with Mist and Fog 25 -4 23 -5 93 93 VRB 3 6 30.48 1032 1.75 2.816345 0 0
9:10 am 09:10 Cloudy with Freezing Fog 24 -4.4 24 -4.4 100 100 S 3 6 30.49 1032 0.25 0.402335 0 0
9:53 am 09:53 Mostly Cloudy with Freezing Fog 26 -3.3 24 -4.4 92 92 E 6 9 30.41 1030 0.25 0.402335 0 0
10:14 am 10:14 Cloudy with Mist and Fog 26 -3.3 25 -3.9 96 96 SE 7 11 30.48 1032 0.75 1.207005 0 0
10:22 am 10:22 Cloudy with Mist and Fog 27 -3 25 -4 93 93 ESE 6 9 30.47 1032 1.25 2.011675 0 0
10:29 am 10:29 Cloudy with Mist and Fog 27 -2.8 25 -3.9 92 92 ESE 6 9 30.47 1032 3 4.82802 0 0
10:53 am 10:53 Cloudy with Mist and Fog 28 -2.2 27 -2.8 96 96 SSE 3 6 30.41 1030 5 8.0467 0 0
11:27 am 11:27 Mostly Cloudy 29 -1.7 25 -3.9 85 85 ESE 7 11 30.45 1031 7 11.26538 0 0
11:44 am 11:44 Partly Cloudy 28 -2 25 -4 86 86 ESE 7 11 30.46 1031 8 12.87472 0 0
11:53 am 11:53 Mostly Sunny 28 -2.2 26 -3.3 92 92 ESE 8 13 30.41 1030 7 11.26538 0 0
12:53 pm 12:53 Mostly Sunny 31 -0.6 28 -2.2 89 89 E 9 15 30.41 1030 10 16.0934 0 0
1:53 pm 13:53 Sunny 34 1.1 28 -2.2 79 79 SE 14 22 30.38 1029 10 16.0934 0 0
2:53 pm 14:53 Sunny 35 1.7 27 -2.8 72 72 SE 12 19 30.37 1028 10 16.0934 0 0
3:53 pm 15:53 Sunny 37 2.8 28 -2.2 70 70 ESE 10 17 30.36 1028 10 16.0934 0 0
4:53 pm 16:53 Sunny 37 2.8 29 -1.7 73 73 ESE 10 17 30.35 1028 10 16.0934 0 0
5:53 pm 17:53 Sunny 37 2.8 30 -1.1 76 76 SE 8 13 30.35 1028 10 16.0934 0 0
6:53 pm 18:53 Sunny 35 1.7 30 -1.1 82 82 E 7 11 30.35 1028 10 16.0934 0 0
7:53 pm 19:53 Clear 32 0 28 -2.2 85 85 ESE 8 13 30.35 1028 10 16.0934 0 0
8:53 pm 20:53 Clear 31 -0.6 28 -2.2 89 89 E 8 13 30.36 1028 10 16.0934 0 0
9:53 pm 21:53 Clear 33 0.6 27 -2.8 78 78 E 10 17 30.35 1028 10 16.0934 0 0
10:53 pm 22:53 Clear 30 -1.1 26 -3.3 85 85 ESE 10 17 30.35 1028 10 16.0934 0 0
11:53 pm 23:53 Clear 30 -1.1 26 -3.3 85 85 E 12 19 30.34 1028 9 14.48406 0 0

Powered by AerisWeather